This is the latest recevied weather packets stored in our database for station/object KE0FIN. If no packets are shown the sender has not sent any weather packets the latest 10 day(s).
| Time | Temp. | Humidity | Pressure | Rain* | Wind** | Luminosity | Snow |
|---|---|---|---|---|---|---|---|
| 1777677161 | 15.56° C | 53% | 1068.7 hPa | 0 mm | - | 40 W/m² | - |
| 1777676858 | 15.56° C | 53% | 1068.9 hPa | 0 mm | - | 56 W/m² | - |
| 1777676557 | 15.56° C | 53% | 1068.9 hPa | 0 mm | - | 55 W/m² | - |
| 1777676254 | 15.56° C | 52% | 1068.8 hPa | 0 mm | - | 53 W/m² | - |
| 1777675951 | 15.56° C | 52% | 1068.8 hPa | 0 mm | - | 54 W/m² | - |
| 1777675647 | 16.11° C | 51% | 1068.5 hPa | 0 mm | - | 61 W/m² | - |
| 1777675345 | 16.11° C | 50% | 1068.8 hPa | 0 mm | - | 104 W/m² | - |
| 1777675041 | 15.56° C | 50% | 1068.5 hPa | 0 mm | - | 213 W/m² | - |
| 1777674738 | 15.56° C | 49% | 1068.7 hPa | 0 mm | - | 59 W/m² | - |
| 1777674435 | 16.11° C | 49% | 1068.6 hPa | 0 mm | - | 67 W/m² | - |
| 1777674132 | 15.56° C | 50% | 1068.8 hPa | 0 mm | - | 90 W/m² | - |
| 1777673828 | 16.11° C | 49% | 1068.7 hPa | 0 mm | - | 93 W/m² | - |
| 1777673525 | 16.67° C | 46% | 1068.8 hPa | 0 mm | - | 86 W/m² | - |
| 1777673223 | 17.22° C | 43% | 1068.8 hPa | 0 mm | - | 62 W/m² | - |
| 1777672920 | 17.78° C | 35% | 1068.6 hPa | 0 mm | - | 38 W/m² | - |
| 1777672616 | 18.33° C | 34% | 1068 hPa | 0 mm | - | 37 W/m² | - |
| 1777672312 | 18.89° C | 36% | 1068.1 hPa | 0 mm | - | 31 W/m² | - |
| 1777672007 | 18.89° C | 36% | 1068 hPa | 0 mm | - | 41 W/m² | - |
| 1777671702 | 19.44° C | 33% | 1067.9 hPa | 0 mm | - | 76 W/m² | - |
| 1777671400 | 18.89° C | 34% | 1068.1 hPa | 0 mm | - | 96 W/m² | - |
| 1777671096 | 18.89° C | 34% | 1068.1 hPa | 0 mm | - | 86 W/m² | - |
| 1777670793 | 18.89° C | 32% | 1068 hPa | 0 mm | - | 101 W/m² | - |
| 1777670489 | 18.89° C | 33% | 1068 hPa | 0 mm | - | 130 W/m² | - |
| 1777670185 | 18.89° C | 33% | 1068 hPa | 0 mm | - | 122 W/m² | - |
| 1777669884 | 19.44° C | 33% | 1068.2 hPa | 0 mm | - | 134 W/m² | - |
* Rain latest hour (hover to see other rain measurements)
** Current wind speed in m/s (hover to see current wind gust speed)